[[{"header":{"parameterUnit":"m.s-1","parameterCategory":1,"la1":30.2992,"la2":30.254,"lo1":-89.0895,"lo2":-89.0443,"dy":0.0025,"dx":0.0025,"nx":19,"ny":19,"refTime":"2026-03-14T03:00:00:Z","depth":0,"parameterNumber":2,"parameterNumberName":"U-component_of_WINDS"},"data":[0,0,0,0.3557,0.3552,0.3324,0.3323,0.3069,0.3067,0,0,0,0,0,0,0,0,0,0,0,0.3649,0.3648,0.3557,0.3552,0.3324,0.3323,0.3069,0.3067,0,0,0,0,0,0,0,0,0,0,0,0.3649,0.3648,0.3647,0.3551,0.3325,0.3323,0.3069,0.3228,0,0,0,0,0,0,0,0,0,0,0.3442,0.3552,0.3648,0.3647,0.355,0.3325,0.3323,0.3235,0.3218,0.3188,0,0.3171,0,0.3115,0.3052,0.3051,0,0,0,0.3533,0.3567,0.3483,0.3647,0.3548,0.3325,0.3422,0.3225,0.3206,0.3166,0.3167,0.3156,0.3111,0.3051,0.305,0.2949,0.295,0,0,0.3545,0.3621,0.3496,0.3472,0.3512,0.3429,0.3415,0.3213,0.3217,0.3166,0.315,0.3107,0.3049,0.3048,0.2949,0.295,0,0,0,0.3595,0.363,0.3551,0.3484,0.344,0.3423,0.3407,0.3226,0.3194,0.3147,0.3104,0.3048,0.3045,0.2948,0.2949,0.3044,0,0,0,0.3601,0.3659,0.3557,0.3601,0.3445,0.3331,0.3426,0.3208,0.3183,0.3105,0.3048,0.3043,0.2948,0.2949,0.304,0.3075,0,0,0,0.3655,0.3665,0.364,0.3605,0.351,0.3332,0.3288,0.3201,0.3158,0.3051,0.3043,0.2947,0.2949,0.3037,0.307,0.3071,0,0,0,0.3734,0.3727,0.3643,0.3619,0.3513,0.3394,0.3288,0.3195,0.3115,0.3047,0.2948,0.2949,0.3036,0.3066,0.3068,0.3085,0.3099,0,0,0.3767,0.3734,0.3713,0.3631,0.3547,0.3422,0.335,0.3204,0.3124,0.3012,0.3008,0.3041,0.3069,0.307,0.3156,0.3169,0,0,0,0.3749,0.3735,0.3696,0.3625,0.3515,0.3423,0.3281,0.3227,0.3128,0.3083,0.304,0.3054,0.3051,0.3056,0.3066,0.3059,0.2955,0.2955,0.2955,0.3902,0.3802,0.3761,0.3634,0.3566,0.342,0.3354,0.3256,0.3173,0.3165,0.3131,0.3196,0.3204,0.3211,0.3205,0.3132,0.3133,0.3133,0.3133,0.394,0.3904,0.3796,0.3718,0.3612,0.3543,0.3403,0.3347,0.3266,0.3213,0.3206,0.3156,0.3228,0.3217,0.3139,0.3138,0.3138,0.3137,0.3137,0.4028,0.3994,0.393,0.3816,0.374,0.361,0.3539,0.3443,0.3353,0.3346,0.3299,0.3297,0.3282,0.333,0.3331,0.3331,0.3331,0.3331,0.3331,0.4145,0.407,0.4022,0.3907,0.3848,0.3759,0.3613,0.3551,0.3459,0.3395,0.3394,0.3313,0.3254,0.3242,0.3334,0.3334,0.3333,0.3333,0.3333,0.4219,0.4187,0.4115,0.4057,0.3912,0.3842,0.3722,0.3606,0.3542,0.3509,0.3429,0.3402,0.336,0.3351,0.3339,0.3452,0.3452,0.3452,0.3452,0.4293,0.4264,0.4168,0.4081,0.3985,0.387,0.3788,0.3675,0.3551,0.3505,0.3475,0.3452,0.3447,0.3407,0.3397,0.3385,0.3506,0.3506,0.3506,0.4332,0.4289,0.4239,0.4121,0.4001,0.39,0.382,0.3722,0.3576,0.3506,0.3466,0.3463,0.3425,0.3418,0.3347,0.3334,0.3309,0,0]},{"header":{"parameterUnit":"m.s-1","parameterCategory":1,"la1":30.2992,"la2":30.254,"lo1":-89.0895,"lo2":-89.0443,"dy":0.0025,"dx":0.0025,"nx":19,"ny":19,"refTime":"2026-03-14T03:00:00:Z","depth":0,"parameterNumber":3,"parameterNumberName":"V-component_of_WINDS"},"data":[0,0,0,7.3648,7.3653,7.3923,7.3924,7.4229,7.4231,0,0,0,0,0,0,0,0,0,0,0,7.3546,7.3547,7.3648,7.3654,7.3923,7.3924,7.4228,7.4231,0,0,0,0,0,0,0,0,0,0,0,7.3545,7.3547,7.3549,7.3655,7.3923,7.3924,7.4228,7.4038,0,0,0,0,0,0,0,0,0,0,7.3783,7.3668,7.3547,7.3549,7.3656,7.3922,7.3924,7.403,7.405,7.409,0,7.4122,0,7.4181,7.4249,7.425,0,0,0,7.367,7.365,7.3744,7.3549,7.3658,7.3922,7.3806,7.4041,7.4064,7.4117,7.4126,7.4139,7.4186,7.4251,7.4252,7.4435,7.4435,0,0,7.3655,7.3582,7.3728,7.3757,7.3716,7.3797,7.3814,7.4056,7.4061,7.4128,7.4147,7.4191,7.4253,7.4255,7.4435,7.4435,0,0,0,7.3601,7.3571,7.3659,7.3744,7.3795,7.3805,7.3824,7.405,7.4085,7.415,7.4195,7.4254,7.4257,7.4435,7.4435,7.437,0,0,0,7.3593,7.354,7.3651,7.3609,7.379,7.3927,7.3812,7.4068,7.4098,7.4193,7.4254,7.426,7.4435,7.4435,7.4372,7.4351,0,0,0,7.3536,7.3533,7.3565,7.3605,7.3718,7.3924,7.3974,7.4076,7.4124,7.425,7.4261,7.4435,7.4435,7.4373,7.4354,7.4378,0,0,0,7.3453,7.3502,7.3562,7.3634,7.3716,7.3883,7.3973,7.4101,7.4201,7.4256,7.4435,7.4435,7.4374,7.4355,7.4379,7.4385,7.4381,0,0,7.3474,7.3502,7.355,7.3612,7.375,7.3847,7.3976,7.4135,7.4213,7.4356,7.4362,7.4371,7.4354,7.4378,7.4384,7.4379,0,0,0,7.3532,7.3565,7.3618,7.3711,7.3835,7.394,7.4089,7.4148,7.4274,7.4272,7.4389,7.4381,7.4398,7.4404,7.4401,7.4421,7.4435,7.4435,7.4435,7.3455,7.3554,7.364,7.3771,7.3859,7.4013,7.4094,7.42,7.4272,7.4297,7.434,7.4332,7.4336,7.4334,7.4353,7.4352,7.4352,7.4351,7.4351,7.3494,7.3557,7.3654,7.3772,7.3875,7.3974,7.4123,7.4171,7.4278,7.4307,7.4328,7.435,7.4327,7.4349,7.4347,7.4348,7.4349,7.4349,7.4349,7.3455,7.3502,7.3575,7.3721,7.3821,7.3951,7.405,7.414,7.4226,7.4246,7.4301,7.4302,7.4315,7.4266,7.4266,7.4266,7.4266,7.4266,7.4266,7.3385,7.347,7.3543,7.3679,7.3751,7.3857,7.4012,7.4085,7.4188,7.4246,7.4247,7.4316,7.4307,7.4302,7.4266,7.4266,7.4266,7.4266,7.4266,7.3387,7.3402,7.3514,7.3586,7.3755,7.3848,7.3963,7.4103,7.4176,7.4222,7.4288,7.4267,7.4301,7.4304,7.4301,7.4266,7.4266,7.4266,7.4266,7.3353,7.3381,7.3516,7.3626,7.3743,7.3858,7.3981,7.4102,7.4228,7.4279,7.4298,7.4301,7.4301,7.4336,7.4338,7.4337,7.4312,7.4312,7.4312,7.336,7.3403,7.349,7.3616,7.3755,7.3871,7.3989,7.411,7.4256,7.4316,7.4321,7.4319,7.4327,7.4324,7.4382,7.4384,7.4384,0,0]}]]